Погода Лубны

Погода Лубны : погода сейчас, прогноз погоды и архив. Всё, что Вы хотите узнать о погоде Лубны!

Поиск расширенной информации на нашем сайте:

Другие новости

Новости СМИ2

Главная страница сайта

Новости сайта

02.10.2013

Напоминаем, что на нашем новом сайте вы можете получить высокодетализированные прогнозы погоды по пунктам России, СНГ и мира (включающие важные для авиации метеовеличины, такие как направление и скорость ветра, видимость, явления погоды, количество и форма облачности, нижняя и верхняя граница облачности), а также ознакомиться с разнообразными материалами по авиационной метеорологии и подборкой полезных ссылок на эту тему.

Сайт Метеоцентр.Азия посвящён разработке технологий оптимизации авиаметеорологического обслуживания, включая проектирование и перспективное создание нескольких автоматизированных авиаметеорологических систем:
- система выпуска высокодетальных прогностических карт явлений погоды для нижнего воздушного пространства по России и ближнему зарубежью;
- система верификации прогнозов TAF (выпускаемых синоптиками официальных АМСГ РФ и ближнего зарубежья) и AUTOTAF (выпускаемых сайтом Метеоцентр.Азия) - выявление ошибок, онлайн-сопоставление с фактической погодой METAR, автоматическое внесение коррективов в прогнозы при резком отклонении фактической погоды от прогноза, подсчёт оправдываемости прогнозов по элементам и в целом;
- система обработки, анализа и отображения авиаметеорологической информации для применения провайдерами метеорологической информации.


Погода Лубны - сегодня

Время (UTC), дата Ветер
(°,м/с) 
Видим.   Явления Облачность Т
(°С)
Тd
(°С)
f(%) Тe
(°С)
Pmin
(гПа)
dP
(гПа)
Po
(мм)
O2
(г/м3)
Тmin Tmax R s Состояние
почвы
15 24.05.17 210 (ЮЗ) 10 км    3/1 1000 м верхняя 
[Cu med, cong|Ci fib]
+25.1 +5.3 28 +25  1013.9  -0.4  747  275           
18 24.05.17 180 (Ю) 10 км    1/0 верхняя 
[Ci fib]
+20.8 +3.1 31 +21  1014.9  0.7  747  279    +26.2       
21 24.05.17 210 (ЮЗ) 10 км    ясно 
+17.1 +4.7 44 +18  1016.1  0.9  748  283           
00 25.05.17 180 (Ю) 10 км    ясно 
+14.1 +6.4 60 +15  1016.4  0.2  748  286           
03 25.05.17 210 (ЮЗ) 10 км    1/0 верхняя 
[Ci fib]
+12.5 +6.9 69 +14  1017  0.4  749  287           
06 25.05.17 240 (ЮЗ) 10 км    1/0 верхняя 
[Ci fib]
+19.6 +5.1 39 +21  1016.8  0.3  749  281  +10.6         
09 25.05.17 200 (Ю) 10 км    ясно 
+21.7 +4 31 +22  1016.6  -0.1  749  279           
12 25.05.17 180 (Ю) 10 км    3/3 1000 м верхняя 
[Cu med, cong|Ci fib]
+22.7 +2.9 27 +23  1015.6  -0.9  748  278           
15 25.05.17 180 (Ю) 10 км    3/1 1000 м верхняя 
[Cu med, cong|Ci fib]
+23 +5.9 33 +23  1014.7  -0.9  747  277           
18 25.05.17 180 (Ю) 10 км    3/0 верхняя 
[Ci fib]
+19 +5 40 +20  1014.9  747  281    +23.6       
21 25.05.17 180 (Ю) 10 км    1/0 верхняя 
[Ci fib]
+15.8 +3.7 44 +17  1015.2  0.1  747  284           
00 26.05.17 220 (ЮЗ) 10 км    ясно 
+14.5 +6.9 60 +16  1015.2  -0.1  747  285           
03 26.05.17 тихо ()   10 км    4/0 верхняя 
[Ci fib]
+13 +8.2 73 +13  1015.4  0.1  747  286           
06 26.05.17 180 (Ю) 10 км    6/0 средняя, верхняя 
[Ac trans|Ci]
+19.3 +9.7 54 +21  1014.9  -0.1  747  280  +12.5         
09 26.05.17 200 (Ю) 10 км    8/3 1000 м средняя, верхняя 
[Cu med, cong|Ac cast|Ci]
+21.3 +5.5 36 +21  1014.1  -0.6  747  278           
12 26.05.17 200 (Ю) 10 км    9/4 1000 м средняя, верхняя 
[Cu med, cong|Ac cast|Ci]
+22.3 +3.5 29 +22  1013.1  -1  746  277           
12 27.05.17 270 (З) 10 км  {ливн. осадки}  9/8 570 м кучево-дожд., средняя 
[Cb calv|Ac As]
+17.7 +12.3 71 +22  1014.8  0.4  747  280         
21 27.05.17 тихо ()   10 км    ясно 
+12.3 +6.2 66 +12  1018.4  1.7  750  288           
00 28.05.17 360 (С) 10 км    ясно 
+9.5 +4.8 72 +11  1019.8  1.2  750  291           
21 28.05.17 300 (СЗ) 10 км    ясно 
+14.9 +9.7 71 +17  1020.3  0.8  751  285           
00 29.05.17 310 (СЗ) 10 км    ясно 
+12.4 +9.4 82 +14  1020.5  751  288           
03 29.05.17 тихо ()   10 км    ясно 
+11.6 +9.2 85 +12  1020  -0.6  751  289           
12 29.05.17 270 (З) 10 км    4/4 1000 м 
[Cu med, cong]
+26.3 +7.3 30 +26  1015  -2  748  274           
15 29.05.17 240 (ЮЗ) 10 км    4/3 1000 м верхняя 
[Cu med, cong|Ci fib]
+26.2 +5.1 26 +26  1012.8  -2.2  746  274           
18 29.05.17 240 (ЮЗ) 10 км    4/0 верхняя 
[Ci fib]
+22.5 +10.1 45 +24  1012  -1  745  276    +27.2       
Время (UTC), дата Ветер
(°,м/с) 
Видим.   Явления Облачность Т
(°С)
Тd
(°С)
f(%) Тe
(°С)
Pmin
(гПа)
dP
(гПа)
Po
(мм)
O2
(г/м3)
Тmin Tmax R s Состояние
почвы

Для получения пояснительной информации подведите курсор к названию столбца.

ПОГОДА Лубны - архив

Всё, что Вы хотите узнать о погоде Лубны - удобно и подробно!

Выберите нужную дату (начиная с 1 января 2015* года) и нажмите кнопку "Найти".
Будут отображены архивные сводки погоды по пункту Лубны, начиная с указанной даты.


Отображать данные в формате CSV (для использования в таблицах Excel)


Внимание! Наш архив погоды предназначен исключительно для личного некоммерческого использования в познавательных целях. Если Вам необходимы официальные справки о состоянии погоды (для производственных, юридических, коммерческих и т.п. целей), обращайтесь в органы Росгидромета.

*Примечание: данная дата относится к архиву по метеостанциям СССР (Россия, СНГ, Балтия).
Архив по метеостанциям Зарубежной Европы и Азии (кроме Китая) хранится 10 дней, по другим регионам земного шара (Китай, Африка, Америка, Австралия, Океания) - 1 день.

Лубны - район местоположения метеостанции


Название, широта, долгота, высота метеостанции:
Лубны 50°ш. 33°д. 158 м над ур. моря [Украина]

Дополнительная информация

В oтличие oт бoльшинства пoгoдных сайтoв мы публикуем пoдрoбную метеoинфoрмацию в детальнoм прoфессиoнальнoм фoрмате.

Характеристики температуры и влажнoсти вoздуха измеряются на высoте 2 м в тени вдали oт зданий и деревьев.
Скoрoсть ветра измеряется на высoте 10 м (на урoвне рoста челoвека скoрoсть ветра ниже в 1.5-2 раза). Если метеoстанция нахoдится в гoрoде или в лесу, тo скoрoсть ветра занижена на 2-4 м/с пo сравнению с oткрытым местoм. Скoрoсть ветра над акватoриями крупных рек и oзёр, а также на вершинах хoлмoв на 2-5 м/с выше, чем в oбычных услoвиях.
Атмoсфернoе давление в разных тoчках местнoсти мoжет значительнo oтличаться oт давления на метеoстанции, в зависимoсти oт услoвий рельефа (при пoдъёме на 10 м давление пoнижается примернo на 1 мм рт.ст.).